Rutland, VT

6:27 AM EDT on May 24, 2017 (GMT -0400)
Rutland State

Weather History for KRUT - January, 2013

Change the Weather History Date:

Tuesday, January 8, 2013

  Actual Average Record
Temperature  
Mean Temperature 23 °F -  
Max Temperature 37 °F - 64 °F (2008)
Min Temperature 9 °F - -14 °F (1968)
Degree Days  
Heating Degree Days 42    
Month to date heating degree days 374  
Since 1 July heating degree days 2784  
Cooling Degree Days 0    
Month to date cooling degree days 0  
Year to date cooling degree days 0  
Moisture  
Dew Point 15 °F    
Average Humidity 68    
Maximum Humidity 92    
Minimum Humidity 44    
Precipitation  
Precipitation 0.00 in - 3.75 in (1998)
Month to date precipitation 0.00  
Year to date precipitation 0.00  
Sea Level Pressure  
Sea Level Pressure 30.27 in    
Wind  
Wind Speed 5 mph (South)    
Max Wind Speed 14 mph    
Max Gust Speed -    
Visibility 10 miles    
Events      
T = Trace of Precipitation, MM = Missing Value Source: NWS Daily Summary

Daily Weather History Graph

Daily Weather History Graph

Search for Another Location

Airport or City:

Trip Planner

Search our weather history database for the weather conditions in past years. The results will help you decide how hot, cold, wet, or windy it might be!

Date:

Astronomy

Jan. 08, 2013 Rise Set
Actual Time 7:24 AM EST 4:33 PM EST
Civil Twilight 6:52 AM EST 5:05 PM EST
Nautical Twilight 6:16 AM EST 5:41 PM EST
Astronomical Twilight 5:41 AM EST 6:15 PM EST
Moon 3:53 AM EST (1/8) 1:33 PM EST (1/8)
Length of Visible Light 10h 13m
Length of Day
9h 08m
Waning Crescent, 14% of the Moon is Illuminated
Jan 8
Waning Crescent
Jan 11
New
Jan 18
First Quarter
Jan 26
Full
Feb 3
Last Quarter

Hourly Weather History & Observations

Time (EST) Temp. Windchill Dew Point Humidity Pressure Visibility Wind Dir Wind Speed Gust Speed Precip Events Conditions
12:15 AM 12.2 °F -1.8 °F 8.6 °F 85% 30.25 in 10.0 mi ESE 11.5 mph - N/A   Clear
12:35 AM 10.4 °F -4.1 °F 3.2 °F 73% 30.25 in 10.0 mi SE 11.5 mph - N/A   Clear
12:55 AM 10.4 °F -5.4 °F 6.8 °F 85% 30.25 in 10.0 mi ESE 13.8 mph - N/A   Clear
1:55 AM 10.4 °F -4.1 °F 8.6 °F 92% 30.24 in 10.0 mi SE 11.5 mph - N/A   Clear
2:15 AM 10.4 °F 0.8 °F 6.8 °F 85% 30.25 in 10.0 mi ESE 5.8 mph - N/A   Clear
2:35 AM 10.4 °F -4.1 °F 3.2 °F 73% 30.25 in 10.0 mi SE 11.5 mph - N/A   Clear
3:35 AM 10.4 °F -2.4 °F 3.2 °F 73% 30.22 in 10.0 mi ESE 9.2 mph - N/A   Clear
4:15 AM 8.6 °F - 5.0 °F 85% 30.22 in 10.0 mi Calm Calm - N/A   Clear
4:35 AM 8.6 °F -5.5 °F 8.6 °F 100% 30.21 in 10.0 mi SE 10.4 mph - N/A   Clear
4:55 AM 8.6 °F - 6.8 °F 92% 30.22 in 10.0 mi Calm Calm - N/A   Clear
5:15 AM 8.6 °F -1.3 °F 3.2 °F 79% 30.21 in 10.0 mi SE 5.8 mph - N/A   Clear
5:55 AM 8.6 °F 0.1 °F 6.8 °F 92% 30.22 in 10.0 mi ESE 4.6 mph - N/A   Clear
6:35 AM 8.6 °F 0.1 °F 1.4 °F 73% 30.23 in 10.0 mi WSW 4.6 mph - N/A   Clear
6:55 AM 10.4 °F 4.0 °F 8.6 °F 92% 30.23 in 10.0 mi WSW 3.5 mph - N/A   Clear
7:15 AM 17.6 °F 12.3 °F 10.4 °F 73% 30.24 in 10.0 mi West 3.5 mph - N/A   Clear
7:55 AM 19.4 °F - 15.8 °F 86% 30.27 in 10.0 mi Calm Calm - N/A   Clear
8:15 AM 24.8 °F 17.9 °F 17.6 °F 74% 30.27 in 9.0 mi SW 5.8 mph - N/A   Clear
8:35 AM 30.2 °F 21.9 °F 17.6 °F 60% 30.27 in 10.0 mi SSW 9.2 mph - N/A   Clear
8:55 AM 32.0 °F - 19.4 °F 60% 30.27 in 10.0 mi Calm Calm - N/A   Clear
9:35 AM 33.8 °F 25.8 °F 17.6 °F 52% 30.26 in 10.0 mi West 10.4 mph - N/A   Clear
9:55 AM 33.8 °F 25.8 °F 17.6 °F 52% 30.27 in 10.0 mi SW 10.4 mph - N/A   Clear
10:35 AM 33.8 °F 30.8 °F 17.6 °F 52% 30.27 in 10.0 mi NNW 3.5 mph - N/A   Clear
10:55 AM 33.8 °F - 17.6 °F 52% 30.26 in 10.0 mi Calm Calm - N/A   Clear
11:15 AM 37.4 °F - 17.6 °F 45% 30.26 in 10.0 mi Calm Calm - N/A   Clear
11:35 AM 35.6 °F - 17.6 °F 48% 30.25 in 10.0 mi Calm Calm - N/A   Clear
11:55 AM 35.6 °F 28.0 °F 17.6 °F 48% 30.25 in 10.0 mi WSW 10.4 mph - N/A   Clear
12:15 PM 37.4 °F 31.4 °F 17.6 °F 45% 30.24 in 10.0 mi SW 8.1 mph - N/A   Clear
12:35 PM 37.4 °F - 17.6 °F 45% 30.24 in 10.0 mi Calm Calm - N/A   Clear
12:55 PM 37.4 °F 32.8 °F 19.4 °F 48% 30.24 in 10.0 mi SW 5.8 mph - N/A   Clear
1:55 PM 37.4 °F 32.8 °F 17.6 °F 45% 30.24 in 10.0 mi SSW 5.8 mph - N/A   Clear
2:55 PM 37.4 °F 32.1 °F 17.6 °F 45% 30.26 in 10.0 mi WSW 6.9 mph - N/A   Clear
3:15 PM 37.4 °F 34.9 °F 19.4 °F 48% 30.26 in 10.0 mi SW 3.5 mph - N/A   Clear
3:35 PM 37.4 °F 32.1 °F 17.6 °F 45% 30.26 in 10.0 mi WSW 6.9 mph - N/A   Clear
3:55 PM 37.4 °F 32.1 °F 17.6 °F 45% 30.27 in 10.0 mi SW 6.9 mph - N/A   Clear
4:15 PM 37.4 °F 32.1 °F 17.6 °F 45% 30.27 in 10.0 mi WSW 6.9 mph - N/A   Clear
4:55 PM 35.6 °F - 17.6 °F 48% 30.29 in 10.0 mi Calm Calm - N/A   Clear
5:15 PM 33.8 °F - 17.6 °F 52% 30.29 in 10.0 mi Calm Calm - N/A   Clear
5:35 PM 32.0 °F 27.5 °F 17.6 °F 55% 30.29 in 10.0 mi NE 4.6 mph - N/A   Clear
5:55 PM 33.8 °F - 17.6 °F 52% 30.30 in 10.0 mi Calm Calm - N/A   Clear
6:15 PM 33.8 °F 30.8 °F 19.4 °F 56% 30.30 in 10.0 mi WNW 3.5 mph - N/A   Clear
6:35 PM 33.8 °F - 17.6 °F 52% 30.31 in 10.0 mi Calm Calm - N/A   Clear
6:55 PM 30.2 °F - 17.6 °F 60% 30.31 in 10.0 mi Calm Calm - N/A   Clear
7:35 PM 28.4 °F - 19.4 °F 69% 30.32 in 10.0 mi Calm Calm - N/A   Clear
7:55 PM 28.4 °F - 17.6 °F 64% 30.33 in 10.0 mi Calm Calm - N/A   Clear
8:15 PM 26.6 °F - 19.4 °F 74% 30.33 in 10.0 mi Calm Calm - N/A   Clear
8:35 PM 26.6 °F 22.6 °F 19.4 °F 74% 30.33 in 10.0 mi East 3.5 mph - N/A   Clear
8:55 PM 28.4 °F - 17.6 °F 64% 30.33 in 10.0 mi Calm Calm - N/A   Clear
9:15 PM 26.6 °F 20.0 °F 19.4 °F 74% 30.33 in 10.0 mi SSE 5.8 mph - N/A   Clear
9:35 PM 26.6 °F 19.1 °F 17.6 °F 69% 30.34 in 10.0 mi SE 6.9 mph - N/A   Clear
9:55 PM 24.8 °F 16.1 °F 17.6 °F 74% 30.33 in 10.0 mi SE 8.1 mph - N/A   Clear
10:15 PM 26.6 °F 18.2 °F 19.4 °F 74% 30.34 in 10.0 mi SE 8.1 mph - N/A   Clear
10:35 PM 24.8 °F 17.9 °F 17.6 °F 74% 30.34 in 10.0 mi SE 5.8 mph - N/A   Clear
10:55 PM 24.8 °F 19.1 °F 19.4 °F 80% 30.35 in 10.0 mi SE 4.6 mph - N/A   Clear
11:15 PM 24.8 °F 19.1 °F 17.6 °F 74% 30.34 in 10.0 mi SE 4.6 mph - N/A   Clear
11:35 PM 24.8 °F 20.5 °F 17.6 °F 74% 30.34 in 10.0 mi ESE 3.5 mph - N/A   Clear